EW7346 Weather Reports


time (UTC)temp
C
wind
direction
speed
KPH
gust
KPH
rain 1hr
cm
rain 24hr
cm
rain mn
cm
humidity
%
barometer
mb
20260508014505 10 327 0.0 0.0 0.00 0.38 0.38 41 1019.2
20260508013502 11 327 0.0 0.0 0.00 0.38 0.38 41 1019.2
20260508012503 11 327 0.0 0.0 0.00 0.38 0.38 40 1018.9
20260508011508 12 292 1.6 3.2 0.00 0.38 0.38 38 1018.9
20260508011502 11 292 0.0 0.0 0.00 0.38 0.38 39 1019.1
20260508005504 12 286 1.6 9.7 0.00 0.38 0.38 37 1018.8
20260508004510 13 298 4.8 12.9 0.00 0.41 0.38 33 1018.7
20260508004504 12 326 3.2 12.9 0.00 0.38 0.38 35 1018.9
20260508003504 13 294 3.2 14.5 0.00 0.38 0.38 33 1018.7
20260508002503 13 244 3.2 17.7 0.00 0.41 0.38 34 1018.7
20260508000500 14 17 3.2 8.0 0.00 0.41 0.38 32 1018.8
20260507235459 13 254 3.2 9.7 0.00 0.41 0.38 35 1018.8
20260507234500 13 247 3.2 8.0 0.00 0.43 0.38 33 1018.8
20260507233458 13 5 3.2 12.9 0.00 0.43 0.38 34 1018.8
20260507232459 14 312 3.2 14.5 0.00 0.46 0.38 33 1018.7
20260507231505 14 319 3.2 16.1 0.00 0.48 0.38 34 1018.8
20260507231459 14 0 3.2 11.3 0.00 0.46 0.38 32 1018.9
20260507225459 15 311 4.8 14.5 0.00 0.51 0.38 35 1018.9
20260507224500 15 288 3.2 16.1 0.00 0.51 0.38 32 1018.8
20260507223500 15 298 4.8 14.5 0.00 0.53 0.38 30 1018.8
20260507222457 14 331 3.2 14.5 0.00 0.58 0.38 36 1019.1
20260507221455 14 286 6.4 20.9 0.00 0.61 0.38 32 1018.9
20260507220456 14 209 4.8 19.3 0.00 0.64 0.38 32 1019.1
20260507220449 14 336 3.2 11.3 0.00 0.66 0.38 31 1019.1
20260507215608 13 222 3.2 9.7 0.00 0.69 0.38 31 1019.3
20260507213449 13 335 3.2 17.7 0.00 0.71 0.38 34 1019.5
20260507212449 13 172 4.8 12.9 0.00 0.79 0.38 32 1019.7
20260507211449 13 225 4.8 12.9 0.00 0.97 0.38 34 1019.9
20260507210450 13 307 6.4 16.1 0.00 1.02 0.38 31 1019.9
20260507205448 13 215 4.8 16.1 0.00 1.02 0.38 36 1020.3
20260507204450 12 188 4.8 14.5 0.00 1.02 0.38 33 1020.4
20260507203448 12 278 4.8 11.3 0.00 1.02 0.38 35 1020.4
20260507202450 12 275 4.8 16.1 0.00 1.02 0.38 36 1020.5
20260507201448 11 254 4.8 16.1 0.00 1.02 0.38 37 1020.5
20260507200450 11 267 4.8 12.9 0.00 1.02 0.38 36 1020.7
20260507195451 11 294 3.2 8.0 0.00 1.02 0.38 40 1020.7
20260507195447 11 249 4.8 12.9 0.00 1.02 0.38 41 1020.7
20260507193452 10 158 4.8 16.1 0.00 1.02 0.38 44 1020.5
20260507193446 10 229 4.8 11.3 0.00 1.02 0.38 44 1020.5
20260507191453 10 242 3.2 11.3 0.00 1.02 0.38 44 1020.9
20260507191448 11 229 3.2 11.3 0.00 1.02 0.38 45 1020.5
20260507185447 10 233 3.2 11.3 0.00 1.02 0.38 41 1021.0
20260507184447 10 315 3.2 17.7 0.00 1.02 0.38 44 1021.0
20260507183445 10 271 3.2 9.7 0.00 1.02 0.38 53 1021.0
20260507182440 9 248 1.6 6.4 0.00 1.02 0.38 49 1021.2
20260507181439 8 225 1.6 8.0 0.00 1.02 0.38 50 1021.4
20260507180437 9 281 0.0 0.0 0.00 1.02 0.38 54 1021.6
20260507175434 8 286 0.0 0.0 0.03 1.02 0.38 51 1021.6
20260507174436 8 247 1.6 8.0 0.03 1.02 0.38 46 1021.7
20260507173436 8 225 0.0 1.6 0.03 1.02 0.38 51 1021.7
20260507172432 8 225 3.2 8.0 0.05 1.02 0.38 54 1021.8
20260507171434 8 239 1.6 4.8 0.08 1.02 0.38 49 1021.8
20260507170438 8 281 0.0 3.2 0.15 0.99 0.36 40 1021.8
20260507170431 8 227 1.6 6.4 0.10 1.02 0.38 50 1021.7
20260507165431 8 219 3.2 8.0 0.10 0.99 0.36 50 1021.7
20260507164431 8 296 0.0 3.2 0.13 0.99 0.36 46 1021.7
20260507162430 8 341 0.0 0.0 0.15 0.97 0.33 37 1021.6
20260507161431 8 341 0.0 0.0 0.15 0.94 0.30 37 1022.0
20260507161426 8 234 0.0 0.0 0.15 0.91 0.28 35 1021.6
20260507155424 8 234 0.0 1.6 0.15 0.89 0.25 38 1021.6
20260507154422 7 234 0.0 0.0 0.15 0.86 0.23 38 1021.8
20260507153426 6 234 0.0 0.0 0.15 0.81 0.18 48 1022.1
20260507153422 7 234 0.0 0.0 0.15 0.84 0.20 48 1021.8
20260507151419 6 234 1.6 4.8 0.13 0.79 0.15 49 1022.1
20260507150420 5 234 0.0 0.0 0.10 0.76 0.13 44 1022.1
20260507150415 5 234 0.0 0.0 0.10 0.74 0.10 48 1022.1
20260507145531 4 234 0.0 0.0 0.08 0.71 0.08 57 1022.0
20260507143413 3 234 0.0 0.0 0.05 0.69 0.05 55 1022.0
20260507142414 2 233 0.0 3.2 0.03 0.66 0.03 62 1021.8
20260507141420 1 232 0.0 3.2 0.03 0.66 0.03 69 1021.7
20260507141416 2 233 0.0 3.2 0.03 0.66 0.03 65 1021.8
20260507135412 0 98 0.0 0.0 0.00 0.64 0.00 68 1021.6
20260507134412 0 98 0.0 1.6 0.00 0.64 0.00 70 1021.7
20260507133416 0 98 1.6 6.4 0.00 0.64 0.00 70 1021.6
20260507133411 -1 98 4.8 6.4 0.00 0.64 0.00 65 1021.4
20260507131409 -2 69 1.6 6.4 0.00 0.64 0.00 69 1021.4
20260507130411 -2 46 0.0 0.0 0.00 0.64 0.00 65 1021.6
20260507125410 -1 46 0.0 1.6 0.00 0.64 0.00 63 1021.6
20260507124410 -1 46 0.0 0.0 0.00 0.64 0.00 62 1021.6
20260507123406 -2 46 0.0 0.0 0.00 0.64 0.00 60 1021.3
20260507122411 -2 46 0.0 3.2 0.00 0.64 0.00 65 1021.0
20260507122406 -2 46 0.0 3.2 0.00 0.64 0.00 61 1021.3
20260507121509 -2 46 0.0 3.2 0.00 0.64 0.00 62 1021.0
20260507115408 -2 51 0.0 3.2 0.00 0.64 0.00 68 1021.0
20260507115403 -2 46 1.6 4.8 0.00 0.64 0.00 66 1020.9
20260507114402 -2 46 1.6 3.2 0.00 0.64 0.00 68 1020.9
20260507112401 -2 54 0.0 3.2 0.00 0.64 0.00 68 1021.3
20260507111359 -2 57 1.6 4.8 0.00 0.64 0.00 67 1020.9
20260507110401 -3 94 0.0 4.8 0.00 0.64 0.00 67 1021.2
20260507105400 -3 53 0.0 0.0 0.00 0.64 0.00 70 1021.2
20260507104359 -3 53 0.0 0.0 0.00 0.64 0.00 72 1021.2
20260507103404 -3 53 0.0 3.2 0.00 0.64 0.00 76 1021.3
20260507103400 -3 53 0.0 0.0 0.00 0.64 0.00 73 1021.2
20260507101401 -3 15 0.0 3.2 0.00 0.64 0.00 77 1021.4
20260507100356 -3 15 0.0 6.4 0.00 0.64 0.00 79 1021.4
20260507095355 -3 5 3.2 8.0 0.00 0.64 0.00 80 1021.7
20260507094349 -3 5 1.6 6.4 0.00 0.64 0.00 80 1021.6
20260507093348 -3 16 0.0 3.2 0.00 0.64 0.00 80 1021.8
20260507092348 -3 5 0.0 3.2 0.00 0.64 0.00 80 1021.4
20260507091353 -3 76 1.6 3.2 0.00 0.64 0.00 80 1021.4
20260507091348 -3 76 1.6 4.8 0.00 0.64 0.00 79 1021.4
20260507090505 -3 27 0.0 3.2 0.00 0.64 0.00 81 1021.6
20260507085348 -3 43 0.0 4.8 0.00 0.64 0.00 81 1021.4
20260507084504 -3 59 0.0 1.6 0.00 0.64 0.00 82 1021.3
20260507083348 -3 57 1.6 4.8 0.00 0.64 0.00 81 1021.4
20260507081348 -3 59 0.0 3.2 0.00 0.64 0.00 81 1021.3
20260507080349 -3 59 0.0 3.2 0.00 0.64 0.00 80 1021.4
20260507075349 -3 59 1.6 6.4 0.00 0.64 0.00 80 1021.4
20260507074348 -3 53 0.0 4.8 0.00 0.64 0.00 82 1021.7
20260507073347 -3 49 0.0 1.6 0.00 0.64 0.00 82 1021.8
20260507072349 -3 49 0.0 0.0 0.00 0.64 0.00 81 1022.0
20260507071346 -3 49 0.0 0.0 0.00 0.64 0.00 82 1021.8
20260507070342 -3 49 0.0 0.0 0.00 0.64 0.00 82 1021.6
20260507065340 -3 49 0.0 0.0 0.00 0.64 0.00 81 1021.6
20260507064339 -2 49 1.6 4.8 0.00 0.64 0.00 80 1021.8
20260507063339 -2 10 1.6 3.2 0.00 0.64 0.00 81 1021.4
20260507062339 -3 355 1.6 3.2 0.00 0.64 0.00 81 1021.6
20260507061340 -3 345 0.0 0.0 0.00 0.64 0.00 82 1021.4
20260507060338 -3 345 0.0 0.0 0.00 0.64 0.00 82 1021.3
20260507055336 -3 345 0.0 0.0 0.00 0.64 0.64 82 1021.0
20260507054334 -2 345 0.0 0.0 0.00 0.64 0.64 82 1020.8
20260507053333 -2 345 0.0 1.6 0.00 0.64 0.64 83 1020.8
20260507052338 -2 62 0.0 0.0 0.00 0.64 0.64 85 1020.3
20260507052333 -2 346 0.0 3.2 0.00 0.64 0.64 84 1020.7
20260507051331 -2 347 0.0 4.8 0.00 0.64 0.64 85 1020.4
20260507045332 -2 62 0.0 1.6 0.00 0.64 0.64 85 1020.4
20260507044329 -3 62 0.0 1.6 0.00 0.64 0.64 86 1020.4
20260507043330 -3 62 0.0 1.6 0.00 0.64 0.64 87 1020.3
20260507042334 -3 86 0.0 1.6 0.00 0.64 0.64 87 1020.0
20260507042330 -3 62 0.0 3.2 0.00 0.64 0.64 87 1020.1
20260507040325 -3 86 0.0 0.0 0.00 0.64 0.64 87 1020.1
20260507035326 -3 86 0.0 0.0 0.00 0.64 0.64 88 1019.9
20260507034324 -3 86 0.0 1.6 0.00 0.64 0.64 88 1019.9
20260507033324 -3 86 0.0 0.0 0.00 0.64 0.64 88 1020.1
20260507032326 -3 86 0.0 1.6 0.00 0.64 0.64 88 1020.1
20260507032322 -3 86 0.0 0.0 0.00 0.64 0.64 88 1019.9
20260507030319 -3 86 1.6 3.2 0.00 0.64 0.64 88 1019.7
20260507025320 -3 86 3.2 8.0 0.00 0.64 0.64 88 1019.9
20260507024320 -3 77 3.2 6.4 0.00 0.66 0.64 87 1019.9
20260507023318 -3 83 1.6 6.4 0.00 0.66 0.64 86 1019.7
20260507022317 -3 94 1.6 4.8 0.00 0.66 0.64 85 1019.7
20260507021311 -2 140 0.0 0.0 0.00 0.66 0.64 84 1019.5
20260507020314 -2 140 0.0 0.0 0.00 0.66 0.64 83 1019.3
20260507020309 -2 140 0.0 0.0 0.00 0.66 0.64 83 1019.3